This is the latest recevied weather packets stored in our database for station/object NC4M. If no packets are shown the sender has not sent any weather packets the latest 10 day(s).
| Time | Temp. | Humidity | Pressure | Rain* | Wind** | Luminosity | Snow |
|---|---|---|---|---|---|---|---|
| 1777994194 | 11.11° C | 82% | 1009.9 hPa | 0 mm | - | 135 W/m² | - |
| 1777993892 | 11.11° C | 82% | 1010.1 hPa | 0 mm | - | 105 W/m² | - |
| 1777993588 | 11.11° C | 83% | 1010.2 hPa | 0 mm | - | 83 W/m² | - |
| 1777993285 | 11.11° C | 84% | 1010 hPa | 0 mm | - | 81 W/m² | - |
| 1777992980 | 11.11° C | 86% | 1009.9 hPa | 0 mm | - | 81 W/m² | - |
| 1777992679 | 11.11° C | 85% | 1009.8 hPa | 0 mm | - | 66 W/m² | - |
| 1777992376 | 11.11° C | 83% | 1009.9 hPa | 0 mm | - | 63 W/m² | - |
| 1777992074 | 11.11° C | 85% | 1009.8 hPa | 0 mm | - | 75 W/m² | - |
| 1777991771 | 11.11° C | 84% | 1009.7 hPa | 0 mm | - | 106 W/m² | - |
| 1777991468 | 11.11° C | 85% | 1009.8 hPa | 0 mm | - | 122 W/m² | - |
| 1777991165 | 10.56° C | 86% | 1009.5 hPa | 0 mm | - | 96 W/m² | - |
| 1777990862 | 10.56° C | 85% | 1009.5 hPa | 0 mm | - | 81 W/m² | - |
| 1777990560 | 10.56° C | 85% | 1009.4 hPa | 0 mm | - | 116 W/m² | - |
| 1777989953 | 10.56° C | 84% | 1009 hPa | 0 mm | - | 99 W/m² | - |
| 1777989650 | 10.56° C | 86% | 1009 hPa | 0 mm | - | 100 W/m² | - |
| 1777989346 | 10.56° C | 84% | 1009.2 hPa | 0 mm | - | 90 W/m² | - |
| 1777989043 | 10.56° C | 86% | 1009.1 hPa | 0 mm | - | 108 W/m² | - |
| 1777988738 | 10.56° C | 85% | 1009.1 hPa | 0 mm | - | 119 W/m² | - |
| 1777988436 | 10.56° C | 86% | 1008.9 hPa | 0 mm | - | 122 W/m² | - |
| 1777988133 | 10.56° C | 87% | 1009 hPa | 0 mm | - | 124 W/m² | - |
| 1777987829 | 10.56° C | 86% | 1009.2 hPa | 0 mm | - | 111 W/m² | - |
| 1777987526 | 10.56° C | 88% | 1009.3 hPa | 0 mm | - | 75 W/m² | - |
| 1777987223 | 10.56° C | 87% | 1009 hPa | 0 mm | - | 104 W/m² | - |
| 1777986919 | 10.56° C | 85% | 1008.9 hPa | 0 mm | - | 113 W/m² | - |
| 1777986618 | 10.56° C | 88% | 1009 hPa | 0 mm | - | 159 W/m² | - |
* Rain latest hour (hover to see other rain measurements)
** Current wind speed in m/s (hover to see current wind gust speed)